TimeAST,TemperatureF,Dew PointF,Humidity,Sea Level PressureIn,VisibilityMPH,Wind Direction,Wind SpeedMPH,Gust SpeedMPH,PrecipitationIn,Events,Conditions,WindDirDegrees,DateUTC
12:00 AM,80.6,75.2,84,30.04,6.2,East,19.6,-,N/A,,Partly Cloudy,90,2013-07-18 04:00:00
1:00 AM,80.6,75.2,84,30.01,6.2,East,13.8,-,N/A,,Partly Cloudy,100,2013-07-18 05:00:00
2:00 AM,82,75,74,30.01,11,East,15.0,,,,Partly Cloudy,100,2013-07-18 06:00:00
2:00 AM,82.4,75.2,79,30.01,6.2,East,15.0,-,N/A,,Partly Cloudy,100,2013-07-18 06:00:00
3:00 AM,80.6,75.2,84,29.98,6.2,ESE,12.7,-,N/A,,Partly Cloudy,110,2013-07-18 07:00:00
4:00 AM,82.4,75.2,79,29.98,6.2,ESE,11.5,-,N/A,,Partly Cloudy,110,2013-07-18 08:00:00
5:00 AM,82,76,76,30.01,11,East,12.7,,,,Partly Cloudy,90,2013-07-18 09:00:00
5:00 AM,82.4,75.2,79,30.01,6.2,East,12.7,-,N/A,,Scattered Clouds,90,2013-07-18 09:00:00
6:00 AM,82.4,75.2,79,30.01,6.2,East,15.0,-,N/A,,Partly Cloudy,100,2013-07-18 10:00:00
7:00 AM,82.4,75.2,79,30.04,6.2,East,17.3,-,N/A,,Partly Cloudy,100,2013-07-18 11:00:00
8:00 AM,83,76,75,30.05,11,East,15.0,,,,Widespread Dust,100,2013-07-18 12:00:00
8:00 AM,84.2,77.0,79,30.04,6.2,East,15.0,-,N/A,,Partly Cloudy,100,2013-07-18 12:00:00
9:00 AM,84.2,77.0,79,30.06,6.2,ESE,18.4,-,N/A,,Partly Cloudy,120,2013-07-18 13:00:00
10:00 AM,87.8,77.0,70,30.09,6.2,ESE,19.6,-,N/A,,Scattered Clouds,120,2013-07-18 14:00:00
11:00 AM,86,76,66,30.11,7,ESE,13.8,,,Rain,Light Rain Showers,110,2013-07-18 15:00:00
11:00 AM,86.0,77.0,74,30.09,6.2,ESE,13.8,-,N/A,Rain,Light Rain Showers,110,2013-07-18 15:00:00
12:00 PM,87.8,77.0,70,30.09,6.2,SE,18.4,-,N/A,,Scattered Clouds,130,2013-07-18 16:00:00
1:00 PM,89.6,78.8,70,30.09,6.2,ESE,16.1,-,N/A,,Scattered Clouds,120,2013-07-18 17:00:00
2:00 PM,87,58,27,30.06,9,SE,15.0,,,,Widespread Dust,130,2013-07-18 18:00:00
2:00 PM,86.0,75.2,70,30.06,6.2,East,16.1,-,N/A,,Scattered Clouds,100,2013-07-18 18:00:00
3:00 PM,86.0,75.2,70,30.06,6.2,East,18.4,-,N/A,,Mostly Cloudy,80,2013-07-18 19:00:00
4:00 PM,86.0,75.2,70,30.04,6.2,East,16.1,-,N/A,,Scattered Clouds,80,2013-07-18 20:00:00
5:00 PM,85,74,64,30.06,9,East,13.8,,,,Widespread Dust,100,2013-07-18 21:00:00
5:00 PM,86.0,75.2,70,30.04,6.2,East,16.1,-,N/A,,Partly Cloudy,90,2013-07-18 21:00:00
6:00 PM,84.2,73.4,70,30.04,6.2,East,15.0,-,N/A,,Partly Cloudy,90,2013-07-18 22:00:00
7:00 PM,82.4,73.4,74,30.06,6.2,East,13.8,-,N/A,,Partly Cloudy,80,2013-07-18 23:00:00
8:00 PM,83,74,66,30.10,9,East,15.0,,,,Widespread Dust,80,2013-07-19 00:00:00
8:00 PM,82.4,73.4,74,30.09,6.2,East,13.8,-,N/A,,Partly Cloudy,80,2013-07-19 00:00:00
9:00 PM,82.4,73.4,74,30.09,6.2,East,13.8,-,N/A,,Partly Cloudy,80,2013-07-19 01:00:00
10:00 PM,82.4,73.4,74,30.09,6.2,East,15.0,-,N/A,,Scattered Clouds,80,2013-07-19 02:00:00
11:00 PM,83,74,68,30.12,9,East,13.8,,,,Widespread Dust,90,2013-07-19 03:00:00
11:00 PM,82.4,73.4,74,30.09,6.2,East,15.0,-,N/A,,Scattered Clouds,90,2013-07-19 03:00:00